Weather History for KBJJ - June, 2013

Change the Weather History Date:

Saturday, June 22, 2013

  Actual Average Record
Temperature  
Mean Temperature 74 °F -  
Max Temperature 87 °F 78 °F 89 °F (1998)
Min Temperature 62 °F 57 °F 51 °F (1999)
Cooling Degree Days 9    
Growing Degree Days 24 (Base 50)    
Moisture  
Dew Point 64 °F    
Average Humidity 69    
Maximum Humidity 90    
Minimum Humidity 51    
Precipitation  
Precipitation 0.00 in - - ()
Sea Level Pressure  
Sea Level Pressure 30.13 in    
Wind  
Wind Speed 4 mph (SW)    
Max Wind Speed 13 mph    
Max Gust Speed 17 mph    
Visibility 8 miles    
Events      
Averages and records for this station are not official NWS values.
T = Trace of Precipitation, MM = Missing Value Source: NWS Daily Summary

Daily Weather History Graph

Daily Weather History Graph

Search for Another Location

Airport or City:

Trip Planner

Search our weather history database for the weather conditions in past years. The results will help you decide how hot, cold, wet, or windy it might be!

Date:

Astronomy

Jun. 22, 2013 Rise Set
Actual Time 5:56 AM EDT 9:02 PM EDT
Civil Twilight 5:22 AM EDT 9:36 PM EDT
Nautical Twilight 4:39 AM EDT 10:19 PM EDT
Astronomical Twilight 3:49 AM EDT 11:10 PM EDT
Moon 8:15 PM EDT (6/22) 5:07 AM EDT (6/22)
Length of Visible Light 16h 13m
Length of Day
15h 06m
Waxing Gibbous, 99% of the Moon is Illuminated
Jun 22
Waxing Gibbous
Jun 23
Full
Jun 30
Last Quarter
Jul 8
New
Jul 15
First Quarter

Hourly Weather History & Observations

Time (EDT) Temp. Heat Index Dew Point Humidity Pressure Visibility Wind Dir Wind Speed Gust Speed Precip Events Conditions
12:56 AM 66.0 °F - 60.1 °F 81% 30.17 in 7.0 mi Calm Calm - N/A   Clear
1:56 AM 64.9 °F - 59.0 °F 81% 30.17 in 7.0 mi Calm Calm - N/A   Clear
2:56 AM 63.0 °F - 59.0 °F 87% 30.15 in 6.0 mi Calm Calm - N/A   Clear
3:56 AM 62.1 °F - 59.0 °F 90% 30.14 in 6.0 mi Calm Calm - N/A   Clear
4:56 AM 62.1 °F - 57.9 °F 86% 30.13 in 7.0 mi Calm Calm - N/A   Clear
5:56 AM 62.1 °F - 57.9 °F 86% 30.14 in 6.0 mi Calm Calm - N/A   Clear
6:56 AM 64.9 °F - 59.0 °F 81% 30.14 in 7.0 mi SSW 4.6 mph - N/A   Clear
7:56 AM 69.1 °F - 61.0 °F 75% 30.16 in 7.0 mi SW 5.8 mph - N/A   Clear
8:56 AM 72.0 °F - 62.1 °F 71% 30.17 in 8.0 mi SSW 10.4 mph - N/A   Clear
9:56 AM 75.9 °F - 64.0 °F 67% 30.17 in 9.0 mi SSW 9.2 mph - N/A   Clear
10:56 AM 80.1 °F 82.1 °F 66.0 °F 62% 30.17 in 9.0 mi SW 6.9 mph - N/A   Clear
11:56 AM 82.0 °F 83.8 °F 64.9 °F 56% 30.17 in 9.0 mi WSW 8.1 mph - N/A   Clear
12:56 PM 82.9 °F 85.0 °F 66.0 °F 56% 30.16 in 9.0 mi SW 6.9 mph - N/A   Mostly Cloudy
1:56 PM 84.0 °F 87.0 °F 68.0 °F 58% 30.14 in 8.0 mi SSW 6.9 mph - N/A   Scattered Clouds
2:56 PM 86.0 °F 88.8 °F 66.9 °F 53% 30.13 in 8.0 mi SSW 10.4 mph - N/A   Partly Cloudy
3:56 PM 86.0 °F 88.8 °F 66.9 °F 53% 30.10 in 9.0 mi South 9.2 mph - N/A   Partly Cloudy
4:56 PM 86.0 °F 88.2 °F 66.0 °F 51% 30.08 in 9.0 mi SSW 12.7 mph 17.3 mph N/A   Partly Cloudy
5:56 PM 84.9 °F 87.1 °F 66.0 °F 53% 30.06 in 8.0 mi SSW 11.5 mph - N/A   Clear
6:56 PM 84.0 °F 86.3 °F 66.0 °F 55% 30.07 in 8.0 mi SSW 11.5 mph - N/A   Clear
7:56 PM 82.0 °F 84.5 °F 66.9 °F 60% 30.06 in 8.0 mi SSW 5.8 mph - N/A   Clear
8:56 PM 79.0 °F - 66.9 °F 66% 30.08 in 7.0 mi SSW 3.5 mph - N/A   Clear
9:56 PM 75.0 °F - 68.0 °F 79% 30.09 in 8.0 mi WSW 5.8 mph - N/A   Clear
10:56 PM 75.9 °F - 64.9 °F 69% 30.10 in 9.0 mi WSW 6.9 mph - N/A   Clear
11:56 PM 75.0 °F - 64.0 °F 69% 30.10 in 9.0 mi SSW 5.8 mph - N/A   Clear